Track STARLINK-1165 now! 10-day predictions STARLINK-1165 is classified as:
1 45059U 20006R 21018.53789189 .00000289 00000-0 38278-4 0 9994 2 45059 53.0593 68.9644 0001401 64.3450 295.7683 15.06401704 53685